Location: Unspecified
(49.9820°N, 20.4363°E)
Time: 05:06:09
(UTC+01:00)

ISS - Pass Details

Date: 14 January 2018
Orbit: 402 x 407 km, 51.6° (Epoch: 22 January)

Event Time Altitude Azimuth Distance (km) Brightness Sun altitude
Exits shadow 06:16:30 10° 243° (WSW) 1,453 -1.4 -11.7°
Maximum altitude 06:17:32 11° 224° (SW) 1,383 -1.4 -11.5°
Drops below altitude 10° 06:18:39 10° 204° (SSW) 1,461 -1.0 -11.3°
Sets 06:21:54 0° 169° (S) 2,317 0.5 -10.8°
